Flag for Chile

Past Weather in Easter Island, Chile — Yesterday and Last 2 Weeks

Now
66 °F

Mostly cloudy.


Feels Like: 66 °F
Forecast: 66 / 59 °F
Wind: 12 mph from Southeast

Location: Isla De Pascua
Current Time: Sep 19, 2020 at 7:05:08 pm
Latest Report: Sep 19, 2020 at 6:00 pm
Visibility: N/A
Pressure30.21 "Hg
Humidity: 52%
Dew Point: 48 °F
Location of Easter IslandLocation

Past Weather in Easter Island — Graph

°F

Easter Island Temperature Yesterday

Maximum temperature yesterday: 68 °F (at 2:00 pm)
Minimum temperature yesterday: 61 °F (at 7:00 am)
Average temperature yesterday: 65 °F

High & Low Weather Summary for the Past Weeks

 TemperatureHumidityPressure
High73 °F (Sep 9, 2:00 pm)100% (Sep 7, 9:00 am)30.48 "Hg (Sep 7, 9:00 am)
Low54 °F (Sep 6, 4:00 am)40% (Sep 18, 5:00 pm)30.01 "Hg (Sep 18, 6:00 am)
Average65 °F75%30.31 "Hg
* Reported Sep 4 5:00 pm — Sep 19 6:00 pm, Easter Island. Weather by CustomWeather, © 2020

Note: Actual official high and low records may vary slightly from our data, if they occured in-between our weather recording intervals... More about our weather records

Easter Island Weather History for the Previous 24 Hours

Scroll right to see more
 ConditionsComfort  
Time TempWeatherWind HumidityBarometerVisibility
6:00 pm
Sat, Sep 19
66 °FMostly cloudy.12 mph52%30.21 "HgN/A
5:00 pm66 °FMostly cloudy.14 mph52%30.21 "HgN/A
4:00 pm66 °FMostly cloudy.13 mph52%30.21 "HgN/A
3:00 pm66 °FPartly sunny.14 mph52%30.24 "HgN/A
2:00 pm64 °FMore clouds than sun.13 mph56%30.27 "HgN/A
1:00 pm66 °FPartly sunny.14 mph56%30.27 "HgN/A
12:00 pm66 °FBroken clouds.12 mph52%30.27 "HgN/A
11:00 am64 °FOvercast.10 mph52%30.27 "HgN/A
10:00 am63 °FOvercast.12 mph56%30.24 "HgN/A
9:00 am63 °FOvercast.13 mph59%30.21 "HgN/A
8:00 am61 °FPassing clouds.10 mph55%30.21 "HgN/A
7:00 am61 °FPassing clouds.9 mph59%30.18 "HgN/A
6:00 am61 °FPassing clouds.7 mph59%30.18 "HgN/A
5:00 am63 °FPartly cloudy.10 mph56%30.18 "HgN/A
4:00 am63 °FPartly cloudy.9 mph56%30.18 "HgN/A
3:00 am63 °FPassing clouds.8 mph56%30.18 "HgN/A
2:00 am61 °FPassing clouds.8 mph55%30.18 "HgN/A
1:00 am63 °FPassing clouds.10 mph52%30.18 "HgN/A
12:00 am61 °FPassing clouds.7 mph55%30.18 "HgN/A
11:00 pm
Fri, Sep 18
63 °FPartly cloudy.9 mph52%30.18 "HgN/A
10:00 pm61 °FPassing clouds.9 mph55%30.18 "HgN/A
9:00 pm63 °FPartly sunny.10 mph59%30.18 "HgN/A
8:00 pm63 °FScattered clouds.10 mph59%30.12 "HgN/A
7:00 pm64 °FScattered clouds.9 mph60%30.12 "HgN/A
Weather by CustomWeather, © 2020

See weather overview